Pineville, WV

12:10 PM EDT on May 27, 2018 (GMT -0400)
Pineville

Weather History for KI16 - March, 2013

Change the Weather History Date:

Saturday, March 9, 2013

  Actual Average (WUND) Record (WUND)
Temperature  
Mean Temperature 46 °F -  
Max Temperature 67 °F - - (-1)
Min Temperature 24 °F - - (-1)
Degree Days  
Heating Degree Days 20    
Moisture  
Dew Point 31 °F    
Average Humidity 83    
Maximum Humidity 100    
Minimum Humidity 22    
Precipitation  
Precipitation 0.00 in - - ()
Sea Level Pressure  
Sea Level Pressure 30.29 in    
Wind  
Wind Speed - (North)    
Max Wind Speed -    
Max Gust Speed -    
Visibility 10 miles    
Events      
Averages and records for this station are not official NWS values.
T = Trace of Precipitation, MM = Missing Value Source: NWS Daily Summary

Daily Weather History Graph

Daily Weather History Graph

Search for Another Location

Airport or City:

Astronomy

Mar. 09, 2013 Rise Set
Actual Time 6:45 AM EST 6:28 PM EST
Civil Twilight 6:19 AM EST 6:54 PM EST
Nautical Twilight 5:49 AM EST 7:24 PM EST
Astronomical Twilight 5:19 AM EST 7:55 PM EST
Moon 5:06 AM EST (3/9) 4:30 PM EST (3/9)
Length of Visible Light 12h 34m
Length of Day
11h 42m
Waning Crescent, 5% of the Moon is Illuminated
Mar 9
Waning Crescent
Mar 11
New
Mar 19
First Quarter
Mar 27
Full
Apr 3
Last Quarter

Hourly Weather History & Observations

Time (EST) Temp. Dew Point Humidity Pressure Visibility Wind Dir Wind Speed Gust Speed Precip Events Conditions
12:15 AM 28.0 °F 27.9 °F 99% 30.39 in 10.0 mi North - - N/A   Clear
12:35 AM 28.0 °F 28.0 °F 100% 30.37 in 10.0 mi North - - N/A   Clear
12:55 AM 27.7 °F 27.7 °F 100% 30.35 in 10.0 mi North - - N/A   Clear
1:15 AM 28.2 °F 28.2 °F 100% 30.35 in 10.0 mi North - - N/A   Clear
1:35 AM 27.7 °F 27.7 °F 100% 30.35 in 10.0 mi North - - N/A   Clear
1:55 AM 27.3 °F 27.3 °F 100% 30.37 in 10.0 mi North - - N/A   Clear
2:15 AM 27.0 °F 27.0 °F 100% 30.37 in 10.0 mi North - - N/A   Clear
2:35 AM 26.6 °F 26.6 °F 100% 30.37 in 10.0 mi North - - N/A   Clear
2:55 AM 26.6 °F 26.6 °F 100% 30.36 in 10.0 mi North - - N/A   Clear
3:15 AM 26.2 °F 26.2 °F 100% 30.35 in 10.0 mi North - - N/A   Clear
3:35 AM 26.1 °F 25.9 °F 99% 30.35 in 10.0 mi North - - N/A   Clear
3:55 AM 25.9 °F 25.9 °F 100% 30.34 in 10.0 mi North - - N/A   Clear
4:15 AM 25.5 °F 25.5 °F 100% 30.34 in 10.0 mi North - - N/A   Clear
4:35 AM 25.7 °F 25.7 °F 100% 30.34 in 10.0 mi North - - N/A   Clear
4:55 AM 25.7 °F 25.7 °F 100% 30.34 in 10.0 mi North - - N/A   Clear
5:15 AM 25.3 °F 25.0 °F 99% 30.34 in 10.0 mi North - - N/A   Clear
5:35 AM 25.2 °F 25.2 °F 100% 30.34 in 10.0 mi North - - N/A   Clear
5:55 AM 25.3 °F 25.2 °F 99% 30.34 in 10.0 mi North - - N/A   Clear
6:15 AM 25.2 °F 24.8 °F 99% 30.34 in 10.0 mi North - - N/A   Clear
6:35 AM 24.8 °F 24.6 °F 99% 30.35 in 10.0 mi North - - N/A   Clear
6:55 AM 24.8 °F 24.6 °F 99% 30.34 in 10.0 mi North - - N/A   Clear
7:15 AM 24.8 °F 24.8 °F 100% 30.35 in 10.0 mi North - - N/A   Clear
7:35 AM 25.2 °F 25.0 °F 99% 30.35 in 10.0 mi North - - N/A   Clear
7:55 AM 26.1 °F 25.9 °F 99% 30.36 in 10.0 mi North - - N/A   Clear
8:15 AM 27.5 °F 27.3 °F 99% 30.36 in 10.0 mi North - - N/A   Clear
8:35 AM 30.6 °F 30.6 °F 100% 30.36 in 10.0 mi North - - N/A   Unknown
3:55 PM 67.5 °F 27.3 °F 22% 30.23 in 10.0 mi North - - N/A   Unknown
4:15 PM 66.6 °F 29.7 °F 25% 30.22 in 10.0 mi North - - N/A   Clear
4:35 PM 66.6 °F 28.6 °F 24% 30.22 in 10.0 mi North - - N/A   Clear
4:55 PM 60.1 °F 34.7 °F 39% 30.22 in 10.0 mi North - - N/A   Clear
5:15 PM 58.6 °F 34.5 °F 40% 30.21 in 10.0 mi North - - N/A   Clear
5:35 PM 56.3 °F 36.5 °F 47% 30.21 in 10.0 mi North - - N/A   Clear
5:55 PM 53.6 °F 38.7 °F 57% 30.21 in 10.0 mi North - - N/A   Clear
6:15 PM 52.0 °F 38.3 °F 60% 30.22 in 7.0 mi North - - N/A   Clear
6:35 PM 49.8 °F 38.5 °F 65% 30.21 in 10.0 mi North - - N/A   Clear
7:15 PM 46.4 °F 37.8 °F 72% 30.22 in 10.0 mi North - - N/A   Clear
7:35 PM 45.7 °F 37.8 °F 74% 30.22 in 10.0 mi North - - N/A   Clear
7:55 PM 44.6 °F 37.6 °F 76% 30.22 in 10.0 mi North - - N/A   Clear
8:15 PM 44.1 °F 36.9 °F 76% 30.22 in 10.0 mi North - - N/A   Clear
8:35 PM 43.0 °F 36.5 °F 78% 30.22 in 10.0 mi North - - N/A   Clear
8:55 PM 42.8 °F 36.5 °F 78% 30.22 in 10.0 mi North - - N/A   Clear
9:15 PM 42.1 °F 36.3 °F 80% 30.23 in 10.0 mi North - - N/A   Clear
9:35 PM 41.5 °F 36.1 °F 81% 30.23 in 10.0 mi North - - N/A   Clear
10:15 PM 40.1 °F 35.6 °F 84% 30.24 in 10.0 mi North - - N/A   Clear
10:35 PM 40.3 °F 35.8 °F 84% 30.24 in 10.0 mi North - - N/A   Mostly Cloudy
10:55 PM 40.5 °F 36.1 °F 85% 30.24 in 10.0 mi North - - N/A   Mostly Cloudy
11:15 PM 40.6 °F 35.8 °F 83% 30.23 in 10.0 mi North - - N/A   Scattered Clouds
11:35 PM 40.8 °F 36.0 °F 83% 30.23 in 10.0 mi North - - N/A   Mostly Cloudy
11:55 PM 41.9 °F 36.5 °F 81% 30.23 in 10.0 mi North - - N/A   Overcast